    Observer details:
    033 Karl Schwarzschild Observatory, Tautenburg.  Observers S. Melnikov, C.
        Hoegner, F. Ludwig, B. Stecklum.  Measurer B. Stecklum.  1.34-m f/3
        Schmidt + CCD.
    104 San Marcello Pistoiese.  Observers P. Bacci, M. Maestripieri.  Measurer P.
        Bacci.  0.60-m f/4 reflector + CCD.
    204 Schiaparelli Observatory.  Observers L. Buzzi, G. Galli.  0.84-m f/3.5
        reflector + CCD.
    221 IAS Observatory, Hakos.  Observer D. Husar.  0.50-m f/6.8 Corrected Dall-
        Kirkham + CCD.
    C82 Osservatorio Astronomico Nastro Verde, Sorrento.  Observer N. Ruocco.
        0.35-m f/6.3  Schmidt-Cassegrain + CCD.
    C95 SATINO Remote Observatory, Haute Provence.  Observers D. Husar, K. Meo.
        Measurer D. Husar.  0.30-m f/5.8 reflector + CMO.
    G02 KYSUCE Observatory, Kysucke Nove Mesto.  Observer M. Urbanik.  0.40-m
        f/5.5 Corrected Dall-Kirkham + CCD.
    G03 Capricornus Observatory, Csokako.  Observer T. Maroti.  0.28-m f/2.2
        reflector + CMO.
    G34 Oberfrauendorf.  Observer T. Felber.  0.35-m f/6.3 Schmidt-Cassegrain +
        CCD.
    H21 Astronomical Research Observatory, Westfield.  Observer R. Holmes.
        Measurers T. Linder, R. Holmes, L. Horn.  0.76-m f/3.0 astrograph + CCD.
    I93 St Pardon de Conques.  Observer F. Losse.  0.40-m f/3.7 reflector + CMO.
    K83 Beppe Forti Astronomical Observatory, Montelupo.  Observers M. Tombelli,
        M. Iozzi, A. Boattini, F. Cheli, A. Mazzanti, M. De Marzi, A. Squilloni,
        M. Lombardo.  Measurers M. Tombelli, F. Bernardi.  0.40-m f/8 Ritchey-
        Chretien + CCD.
    K88 GINOP-KHK, Piszkesteto.  Observer K. Sarneczky.  0.60-m Schmidt + CCD.
    L01 Visnjan Observatory, Tican.  Observers K. Korlevic, L. Gelo, L. Ilisevic,
        I. Paleka, E. Pettarin.  Measurer E. Pettarin.  1.0-m f/2.9 reflector +
        CCD.
    L18 QOS Observatory, Zalistsi.  Observer Y. V. Tanasiychuk.  Measurer A. M.
        Kozhukhov.  0.50-m f/3.8 reflector + CCD.
    L38 Gartensternwarte Schafsweide, Sehlde.  Observer A. Opitz.  0.35-m f/4.6
        Newton + CCD.
    L51 MARGO, Nauchnyi.  Observer G. Borisov.  0.50-m f/1.9 reflector + CCD.
    L65 Bredenkamp Observatory, Bremen.  Observer H. Duin.  0.23-m f/6.3 reflector
        + CMO.
    W62 Comet Hunter Observatory2, New Ringgold.  Observer J. Maikner.  0.30-m
        f/3.8 Riccardi-Honders + CCD.
    X06 Skygems Chile, Rio Hurtado.  Observer L. Demetz.  0.40-m f/5.5 reflector +
        CMO.
    Y05 SONEAR Wykrota-CEAMIG, Serra da Piedade.  Observer C. Jacques.  0.45-m
        f/2.9 reflector + CMO.
    
    Orbital elements:
    2023 PC1                                                 Earth MOID = 0.0107 AU
    Epoch 2023 Sept. 13.0 TT = JDT 2460200.5                Veres                   
    M 354.81254              (2000.0)            P               Q                  
    n   0.25292712     Peri.  255.48312     +0.21385854     -0.97685822             
    a   2.4763144      Node   182.17771     +0.92831822     +0.20435809             
    e   0.8484316      Incl.    5.34852     +0.30412137     +0.06313312             
    P   3.90           H   22.18          G   0.15           U   9                  
    Residuals in seconds of arc
    230811 K88  0.3+  0.7-    230811 G34  0.1-  0.1-    230812 C95  0.3+  0.4+
    230811 K88  0.7+  0.6-    230811 G34  0.1-  0.3-    230812 K88  0.1-  0.4+
    230811 K88  0.3+  0.6-    230811 204  0.0   0.0     230812 033  0.3-  0.2+
    230811 K88  0.4+  0.2+    230812 204  0.0   0.3-    230812 033  0.2-  0.1+
    230811 K88  0.5+  0.1-    230812 Y05  0.3+  0.1-    230812 033  0.1+  0.1-
    230811 033  0.3+  0.1-    230812 204  0.0   0.1-    230812 033  0.5-  0.3+
    230811 033  0.1+  0.1-    230812 Y05  1.0-  0.1-    230812 G02  0.3-  0.6+
    230811 033  0.3+  0.1-    230812 Y05  0.7-  0.2-    230812 I93  0.3-  0.1+
    230811 L01  0.3+  0.3-    230812 W62  0.4-  0.4+    230812 G02  0.2-  0.4+
    230811 L01  0.2+  0.0     230812 W62  0.4-  0.3+    230812 I93  0.4-  0.3+
    230811 L38  0.1+  0.1+    230812 H21  0.1-  0.5+    230812 G02  0.0   0.6+
    230811 L01  0.0   0.2-    230812 H21  0.1-  0.2+    230812 I93  0.1-  0.2+
    230811 L38  0.7+  0.4-    230812 W62  0.4-  0.2+    230812 L65  0.5-  0.1+
    230811 G03  0.3+  0.1-    230812 H21  0.1-  0.4+    230812 L51  0.3-  0.2+
    230811 G03  0.0   0.2+    230812 H21  0.0   0.6+    230812 L51  0.3-  0.2+
    230811 104  0.4-  0.1-    230812 C82  0.4+  1.1-    230812 L51  0.2+  0.0
    230811 L38  0.2-  0.4+    230812 C82  0.0   0.0     230812 L65  0.3+  0.2-
    230811 G03  0.6-  0.4-    230812 L18  0.8-  0.2-    230812 L65  0.3+  0.1+
    230811 L38  0.3+  0.3-    230812 L18  0.4-  0.4+    230813 H21  0.1-  0.1+
    230811 104  0.1+  0.6-    230812 L18  0.1-  0.0     230813 H21  0.1-  0.3+
    230811 L38  0.2-  0.1+    230812 221  0.3-  0.2-    230813 H21  0.1+  0.3+
    230811 K83  0.2+  0.0     230812 221  0.2-  0.2-    230813 H21  0.2+  0.3+
    230811 104  0.0   0.2-    230812 C95  0.5-  0.5+    230813 X06  0.1+  1.6-
    230811 K83  0.3+  0.2+    230812 221  0.5-  0.3-    230813 X06  0.4-  0.0
    230811 G34  0.0   0.1-    230812 K88  0.4+  0.0     230813 X06  0.0   0.1+
    230811 K83  0.1+  0.2+    230812 K88  0.0   0.1-
    
    Ephemeris:
    2023 PC1                 a,e,i = 2.48, 0.85, 5                   q = 0.3753
    Date    TT    R. A. (2000) Decl.     Delta      r    Elong.  Phase     V
    2023 07 14    21 59 17.3 -01 02 04   0.6592  1.5714   138.3    25.5    23.4
    ...
    2023 07 29    21 53 57.5 +02 42 47   0.3878  1.3656   150.2    21.7    21.9
    ...
    2023 08 06    21 41 06.2 +06 32 48   0.2543  1.2489   154.6    20.4    20.7
    ...
    2023 08 12    21 15 40.3 +12 37 59   0.1605  1.1578   152.1    24.2    19.7
    2023 08 13    21 08 05.6 +14 18 07   0.1457  1.1423   150.4    26.0    19.5
    2023 08 14    20 58 41.3 +16 18 08   0.1313  1.1267   148.0    28.5    19.3
    ...
    2023 08 20    18 05 25.9 +39 33 22   0.06522 1.0313   105.4    71.1    18.8
    ...
    2023 08 28    11 54 34.1 +22 14 10   0.1242  0.8991    24.9   151.8    26.2
    ...
    2023 09 12    10 49 55.3 +08 56 21   0.3736  0.6393     8.3   166.8    33.3
    
    M. P. C. Staff               (C) Copyright 2023 MPC           M.P.E.C. 2023-P72
    


    Read MPEC 2023-P71 Read MPEC 2023-P73


    MPEC number:

    Enter an MPEC number in one of the following forms:

    • 1997-B01 (the full form)
    • J97B01 (the packed version of the full form)
    • B01 (the abbreviated form)